STARLINK-35012, 65384

Orbit data source: Space-Track

STARLINK-35012, 65384 is a payload satellite owned by SpaceX/Seattle (US) in SSO that was launched on Sat, 30 Aug 2025 UTC via an FALCON 9 launch vehicle from the Air Force Western Test Range (AFWTR). Payload-class satellites include a variety of spacecraft equipped with specific instruments for various scientific and technological missions. These include communications satellites like Starlink; space stations such as the ISS; scientific satellites like the Hubble; Earth observation satellites from companies like Planet Labs, Umbra, and HawkEye 360; GPS; miniature CubeSats for education and research; and military/defense satellites.

Loading next visibility...
Identifier
65384, 2025-191F
Orbit
SSO
Country
Flag of USUS
Related business
Manufacturer
SpaceX/Seattle
Mission
Operational Commercial Communications
Bus & Motor
STARLINK V2MO, Unknown motor
Mass
575 kg wet, ~530 kg dry
Launch date (UTC)
2025-08-30 (7 months ago)
Launch vehicle
FALCON 9
Launch site
Air Force Western Test Range (AFWTR)
Object type
Payload
Rocket body
Debris
Shape & HBR
Box + 2 Pan, 17.7 m
Radar Cross Section
36.964 m², Large (>1 m²)

Expand to show TLE details & history
Last TLE update: 14 hours ago

TLE from 14 hours ago
0 STARLINK-35012
1 65384U 25191F   26093.65309117  .00010368  00000-0  72165-3 0  9998
2 65384  97.6027 326.0969 0002704  81.6543 278.4990 15.05650695 34024
Epoch: 2026-04-03T15:40Z
TLE epoch observation values (Epoch: 2026-04-03T15:40:27.077Z)
Latitude
-0.00003°
Longitude
-101.00005°
Altitude
552.298 km
Speed
7.586 km/s
True Right ascension
21h 44m 23s
True Declination
0° 00' 00"
Sunlit
Object was in daylight at epoch
Visualization orbit readout
Latitude
Unknown
Longitude
Unknown
Altitude
Unknown
Speed
Unknown
Apparent Right ascension
Unknown
Apparent Declination
Unknown
Sunlit
N/A
Visualization observer readout
Local Sidereal Time
11:23:03
Azimuth
Unknown
Elevation
Unknown
Doppler factor
Unknown
Orbital elements
Apogee altitude
548.375 km
Perigee altitude
544.63 km
Semi-major axis
6,924.639 km
Eccentricity
0.00027
Inclination
97.6027°
RAAN
326.0969°
Arg. of periapsis
81.6543°
True anomaly
278.46835°
Mean anomaly
278.499°
Eccentric anomaly
278.48368°
Mean motion
3.76658 °/min
Orbital period
95.58 mins
BSTAR
0.00072165
Loading maneuver chart data...
Computing Atmospheric mass density...
Loading historical data...
Loading historical data...
Loading historical data...
Loading historical data...
Loading historical data...
Loading historical data...
Loading historical data...

Documentation

Showing up to 5 results
|